Regional Weather Roundup
Issued by NWS

Home | Current Version | Previous Version | Text Only | Print | Product List | Glossary Off
Versions: 1 2 3 4 5 6 7 8 9 10 11 12 13 14 15 16 17 18 19 20 21 22 23 24 25 26 27 28 29 30 31 32 33 34 35 36 37 38 39 40 41 42 43 44 45 46 47 48 49 50

983
ASUS45 KCYS 241810
RWRWY

WYOMING REGIONAL WEATHER ROUNDUP
NATIONAL WEATHER SERVICE CHEYENNE WY
1200 PM MDT SUN JUL 24 2016

NOTE:  "FAIR" INDICATES FEW OR NO CLOUDS BELOW 12,000 FEET
WITH NO SIGNIFICANT WEATHER AND/OR OBSTRUCTIONS TO VISIBILITY.

WYZ001-241900-
YELLOWSTONE NATIONAL PARK

CITY           SKY/WX    TMP DP  RH WIND       PRES   REMARKS
LK YELLOWSTONE   N/A     63  31  30 E7        30.38S
6HR MIN TEMP:  35; 6HR MAX TEMP:  65;

W YELLOWSTONE  NOT AVBL

$$
WYZ002>013-054>058-071-098>099-241900-
NORTHERN WYOMING

CITY           SKY/WX    TMP DP  RH WIND       PRES   REMARKS
JACKSON        SUNNY     68  28  22 CALM      30.29F
CODY           FAIR      75  43  31 NE6       30.19F
GREYBULL       FAIR      81  39  22 S9        30.12F
6HR MIN TEMP:  60; 6HR MAX TEMP:  82;

WORLAND        FAIR      81  39  22 W8        30.13F
6HR MIN TEMP:  53; 6HR MAX TEMP:  81;

SHERIDAN       FAIR      86  40  19 E14       30.11F
6HR MIN TEMP:  57; 6HR MAX TEMP:  86;

BUFFALO        FAIR      82  38  20 SE22G35   30.18F
6HR MIN TEMP:  58; 6HR MAX TEMP:  82;

GILLETTE       FAIR      82  40  22 SE15      30.17F
6HR MIN TEMP:  62; 6HR MAX TEMP:  82;

HULETT         FAIR      73  48  40 CALM      30.20F
NEWCASTLE      FAIR      81  36  19 SE7       30.18F

$$
WYZ014>020-022>026-101>103-241900-
CENTRAL WYOMING

CITY           SKY/WX    TMP DP  RH WIND       PRES   REMARKS
BIG PINEY      FAIR      75  28  17 SW5       30.31F
6HR MIN TEMP:  38; 6HR MAX TEMP:  75;

PINEDALE       FAIR      73  25  16 E8        30.33F
DUBOIS         FAIR      72  25  17 SE7       30.31F
LANDER         FAIR      77  39  25 VRB3      30.23F
6HR MIN TEMP:  56; 6HR MAX TEMP:  79;

RIVERTON       FAIR      78  39  24 VRB3      30.22F
6HR MIN TEMP:  56; 6HR MAX TEMP:  78;

CASPER         FAIR      76  44  32 E6        30.22F
6HR MIN TEMP:  50; 6HR MAX TEMP:  76;

DOUGLAS          N/A    N/A N/A N/A MISG      30.20F

$$
WYZ021-027>030-104>119-241900-
SOUTHERN WYOMING

CITY           SKY/WX    TMP DP  RH WIND       PRES   REMARKS
EVANSTON       FAIR      79  22  12 W9        30.31F
6HR MIN TEMP:  49; 6HR MAX TEMP:  79;

KEMMERER         N/A     77  23  13 W10G17    30.33F
FORT BRIDGER   FAIR      78  22  12 CALM      30.33F
ROCK SPRINGS   FAIR      79  27  14 E7        30.29F
6HR MIN TEMP:  54; 6HR MAX TEMP:  79;

DIXON          FAIR      82  34  17 W5        30.29F
RAWLINS        FAIR      81  22  11 NW13      30.30S
6HR MIN TEMP:  49; 6HR MAX TEMP:  82;

SARATOGA       FAIR      79  23  12 N15       30.31F
LARAMIE        FAIR      81  34  18 N10       30.31S
6HR MIN TEMP:  52; 6HR MAX TEMP:  81;

CHEYENNE       FAIR      81  51  35 SE13G22   30.25S
6HR MIN TEMP:  65; 6HR MAX TEMP:  82;

TORRINGTON     FAIR      83  50  31 E21G28    30.15F
6HR MIN TEMP:  64; 6HR MAX TEMP:  84;

PINE BLUFFS    FAIR      79  55  44 SE15G22   30.22S

$$




USA.gov is the U.S. government's official web portal to all federal, state and local government web resources and services.